Time,TemperatureF,DewpointF,PressureIn,WindDirection,WindDirectionDegrees,WindSpeedMPH,WindSpeedGustMPH,Humidity,HourlyPrecipIn,Conditions,Clouds,dailyrainin,SoftwareType,DateUTC
2013-02-11 00:00:00,17.4,2.0,30.37,NNE,22,0.0,0.0,50,0.00,,,0.04,WUHU21623XXSP,2013-02-11 05:00:00,
2013-02-11 00:05:00,17.8,2.7,30.37,NNE,22,0.0,0.0,51,0.00,,,0.00,WUHU21623XXSP,2013-02-11 05:05:00,
2013-02-11 00:10:00,17.2,2.6,30.37,NNE,22,0.0,0.0,52,0.00,,,0.00,WUHU21623XXSP,2013-02-11 05:10:00,
2013-02-11 00:15:00,16.9,2.6,30.37,NNE,22,0.0,0.0,53,0.00,,,0.00,WUHU21623XXSP,2013-02-11 05:15:00,
2013-02-11 00:20:00,16.9,2.6,30.37,NNE,22,0.0,0.0,53,0.00,,,0.00,WUHU21623XXSP,2013-02-11 05:20:00,
2013-02-11 00:25:00,16.7,2.5,30.37,NNE,22,0.0,0.0,53,0.00,,,0.00,WUHU21623XXSP,2013-02-11 05:25:00,
2013-02-11 00:30:00,16.3,2.1,30.37,NNE,22,0.0,0.0,53,0.00,,,0.00,WUHU21623XXSP,2013-02-11 05:30:00,
2013-02-11 00:35:00,16.3,2.9,30.37,NNE,22,0.0,0.0,55,0.00,,,0.00,WUHU21623XXSP,2013-02-11 05:35:00,
2013-02-11 00:40:00,17.4,3.9,30.36,NNE,22,0.0,0.0,55,0.00,,,0.00,WUHU21623XXSP,2013-02-11 05:40:00,
2013-02-11 00:45:00,17.2,4.1,30.36,NNE,22,0.0,0.0,56,0.00,,,0.00,WUHU21623XXSP,2013-02-11 05:45:00,
2013-02-11 00:50:00,16.5,4.2,30.36,NNE,22,0.0,0.0,58,0.00,,,0.00,WUHU21623XXSP,2013-02-11 05:50:00,
2013-02-11 00:55:00,16.5,4.6,30.35,NNE,22,0.0,0.0,59,0.00,,,0.00,WUHU21623XXSP,2013-02-11 05:55:00,
2013-02-11 01:00:00,16.9,5.0,30.34,NNE,22,0.0,0.0,59,0.00,,,0.00,WUHU21623XXSP,2013-02-11 06:00:00,
2013-02-11 01:05:00,18.0,4.8,30.35,NNE,22,0.0,0.0,56,0.00,,,0.00,WUHU21623XXSP,2013-02-11 06:05:00,
2013-02-11 01:10:00,18.1,5.0,30.35,NNE,22,0.0,0.0,56,0.00,,,0.00,WUHU21623XXSP,2013-02-11 06:10:00,
2013-02-11 01:15:00,17.8,4.7,30.35,NNE,22,0.0,0.0,56,0.00,,,0.00,WUHU21623XXSP,2013-02-11 06:15:00,
2013-02-11 01:20:00,17.4,5.1,30.35,NNE,22,0.0,0.0,58,0.00,,,0.00,WUHU21623XXSP,2013-02-11 06:20:00,
2013-02-11 01:25:00,16.9,4.6,30.35,NNE,22,0.0,0.0,58,0.00,,,0.00,WUHU21623XXSP,2013-02-11 06:25:00,
2013-02-11 01:30:00,16.9,4.6,30.34,NNE,22,0.0,0.0,58,0.00,,,0.00,WUHU21623XXSP,2013-02-11 06:30:00,
2013-02-11 01:35:00,17.1,4.4,30.34,NNE,22,0.0,0.0,57,0.00,,,0.00,WUHU21623XXSP,2013-02-11 06:35:00,
2013-02-11 01:40:00,17.2,3.8,30.34,NNE,22,0.0,0.0,55,0.00,,,0.00,WUHU21623XXSP,2013-02-11 06:40:00,
2013-02-11 01:45:00,16.9,3.4,30.34,NNE,22,0.0,0.0,55,0.00,,,0.00,WUHU21623XXSP,2013-02-11 06:45:00,
2013-02-11 01:50:00,16.5,5.0,30.35,NNE,22,0.0,0.0,60,0.00,,,0.00,WUHU21623XXSP,2013-02-11 06:50:00,
2013-02-11 01:55:00,16.3,4.4,30.34,NNE,22,0.0,0.0,59,0.00,,,0.00,WUHU21623XXSP,2013-02-11 06:55:00,
2013-02-11 02:00:00,16.3,3.7,30.33,NNE,22,0.0,0.0,57,0.00,,,0.00,WUHU21623XXSP,2013-02-11 07:00:00,
2013-02-11 02:05:00,16.5,3.5,30.33,NNE,22,0.0,0.0,56,0.00,,,0.00,WUHU21623XXSP,2013-02-11 07:05:00,
2013-02-11 02:10:00,16.5,3.1,30.33,NNE,22,0.0,0.0,55,0.00,,,0.00,WUHU21623XXSP,2013-02-11 07:10:00,
2013-02-11 02:15:00,16.9,3.4,30.33,NNE,22,0.0,0.0,55,0.00,,,0.00,WUHU21623XXSP,2013-02-11 07:15:00,
2013-02-11 02:20:00,17.2,3.4,30.33,NNE,22,0.0,0.0,54,0.00,,,0.00,WUHU21623XXSP,2013-02-11 07:20:00,
2013-02-11 02:25:00,17.2,3.4,30.32,NNE,22,0.0,0.0,54,0.00,,,0.00,WUHU21623XXSP,2013-02-11 07:25:00,
2013-02-11 02:30:00,17.2,3.4,30.32,NNE,22,0.0,0.0,54,0.00,,,0.00,WUHU21623XXSP,2013-02-11 07:30:00,
2013-02-11 02:35:00,17.4,3.5,30.32,NNE,22,0.0,0.0,54,0.00,,,0.00,WUHU21623XXSP,2013-02-11 07:35:00,
2013-02-11 02:40:00,18.1,6.6,30.32,NNE,22,0.0,0.0,60,0.00,,,0.00,WUHU21623XXSP,2013-02-11 07:40:00,
2013-02-11 02:45:00,18.0,4.4,30.32,NNE,22,0.0,0.0,55,0.00,,,0.00,WUHU21623XXSP,2013-02-11 07:45:00,
2013-02-11 02:50:00,17.4,3.9,30.32,NNE,22,0.0,0.0,55,0.00,,,0.00,WUHU21623XXSP,2013-02-11 07:50:00,
2013-02-11 02:55:00,17.4,3.5,30.32,NNE,22,0.0,0.0,54,0.00,,,0.00,WUHU21623XXSP,2013-02-11 07:55:00,
2013-02-11 03:00:00,17.4,3.9,30.32,NNE,22,0.0,0.0,55,0.00,,,0.00,WUHU21623XXSP,2013-02-11 08:00:00,
2013-02-11 03:05:00,17.2,3.8,30.32,NNE,22,0.0,0.0,55,0.00,,,0.00,WUHU21623XXSP,2013-02-11 08:05:00,
2013-02-11 03:10:00,17.2,4.5,30.31,NNE,22,0.0,0.0,57,0.00,,,0.00,WUHU21623XXSP,2013-02-11 08:10:00,
2013-02-11 03:15:00,17.1,4.4,30.31,NNE,22,0.0,0.0,57,0.00,,,0.00,WUHU21623XXSP,2013-02-11 08:15:00,
2013-02-11 03:20:00,16.9,4.6,30.31,NNE,22,0.0,0.0,58,0.00,,,0.00,WUHU21623XXSP,2013-02-11 08:20:00,
2013-02-11 03:25:00,17.1,4.7,30.31,NNE,22,0.0,0.0,58,0.00,,,0.00,WUHU21623XXSP,2013-02-11 08:25:00,
2013-02-11 03:30:00,16.9,5.0,30.31,NNE,22,0.0,0.0,59,0.00,,,0.00,WUHU21623XXSP,2013-02-11 08:30:00,
2013-02-11 03:35:00,16.9,5.0,30.30,NNE,22,0.0,0.0,59,0.00,,,0.00,WUHU21623XXSP,2013-02-11 08:35:00,
2013-02-11 03:40:00,16.9,5.7,30.30,NNE,22,0.0,0.0,61,0.00,,,0.00,WUHU21623XXSP,2013-02-11 08:40:00,
2013-02-11 03:45:00,17.2,6.4,30.30,NNE,22,0.0,0.0,62,0.00,,,0.00,WUHU21623XXSP,2013-02-11 08:45:00,
2013-02-11 03:50:00,17.2,6.4,30.30,NNE,22,0.0,0.0,62,0.00,,,0.00,WUHU21623XXSP,2013-02-11 08:50:00,
2013-02-11 03:55:00,16.9,6.0,30.29,NNE,22,0.0,0.0,62,0.00,,,0.00,WUHU21623XXSP,2013-02-11 08:55:00,
2013-02-11 04:00:00,16.9,5.7,30.29,NNE,22,0.0,0.0,61,0.00,,,0.00,WUHU21623XXSP,2013-02-11 09:00:00,
2013-02-11 04:05:00,16.9,5.7,30.29,NNE,22,0.0,0.0,61,0.00,,,0.00,WUHU21623XXSP,2013-02-11 09:05:00,
2013-02-11 04:10:00,17.2,6.7,30.28,NNE,22,0.0,0.0,63,0.00,,,0.00,WUHU21623XXSP,2013-02-11 09:10:00,
2013-02-11 04:15:00,17.1,7.6,30.28,NNE,22,0.0,0.0,66,0.00,,,0.00,WUHU21623XXSP,2013-02-11 09:15:00,
2013-02-11 04:20:00,16.9,7.4,30.28,NNE,22,0.0,0.0,66,0.00,,,0.00,WUHU21623XXSP,2013-02-11 09:20:00,
2013-02-11 04:25:00,16.9,7.4,30.28,NNE,22,0.0,0.0,66,0.00,,,0.00,WUHU21623XXSP,2013-02-11 09:25:00,
2013-02-11 04:30:00,16.9,7.1,30.28,NNE,22,0.0,0.0,65,0.00,,,0.00,WUHU21623XXSP,2013-02-11 09:30:00,
2013-02-11 04:35:00,16.9,6.7,30.27,NNE,22,0.0,0.0,64,0.00,,,0.00,WUHU21623XXSP,2013-02-11 09:35:00,
2013-02-11 04:40:00,16.9,7.4,30.27,NNE,22,0.0,0.0,66,0.00,,,0.00,WUHU21623XXSP,2013-02-11 09:40:00,
2013-02-11 04:45:00,16.9,6.7,30.26,NNE,22,0.0,0.0,64,0.00,,,0.00,WUHU21623XXSP,2013-02-11 09:45:00,
2013-02-11 04:50:00,16.9,6.7,30.26,NNE,22,0.0,0.0,64,0.00,,,0.00,WUHU21623XXSP,2013-02-11 09:50:00,
2013-02-11 04:55:00,17.1,6.6,30.27,NNE,22,0.0,0.0,63,0.00,,,0.00,WUHU21623XXSP,2013-02-11 09:55:00,
2013-02-11 05:00:00,17.2,6.4,30.26,NNE,22,0.0,0.0,62,0.00,,,0.00,WUHU21623XXSP,2013-02-11 10:00:00,
2013-02-11 05:05:00,17.4,6.6,30.26,NNE,22,0.0,0.0,62,0.00,,,0.00,WUHU21623XXSP,2013-02-11 10:05:00,
2013-02-11 05:10:00,17.4,5.9,30.26,NNE,22,0.0,0.0,60,0.00,,,0.00,WUHU21623XXSP,2013-02-11 10:10:00,
2013-02-11 05:15:00,17.4,5.9,30.26,NNE,22,0.0,0.0,60,0.00,,,0.00,WUHU21623XXSP,2013-02-11 10:15:00,
2013-02-11 05:20:00,17.8,6.2,30.26,NNE,22,0.0,0.0,60,0.00,,,0.00,WUHU21623XXSP,2013-02-11 10:20:00,
2013-02-11 05:25:00,18.0,6.0,30.26,NNE,22,0.0,0.0,59,0.00,,,0.00,WUHU21623XXSP,2013-02-11 10:25:00,
2013-02-11 05:30:00,18.1,6.9,30.26,NNE,22,0.0,0.0,61,0.00,,,0.00,WUHU21623XXSP,2013-02-11 10:30:00,
2013-02-11 05:35:00,18.3,6.3,30.26,NNE,22,0.0,0.0,59,0.00,,,0.00,WUHU21623XXSP,2013-02-11 10:35:00,
2013-02-11 05:40:00,18.3,7.1,30.26,NNE,22,0.0,0.0,61,0.00,,,0.00,WUHU21623XXSP,2013-02-11 10:40:00,
2013-02-11 05:45:00,18.5,7.6,30.26,NNE,22,0.0,0.0,62,0.00,,,0.00,WUHU21623XXSP,2013-02-11 10:45:00,
2013-02-11 05:50:00,18.9,7.2,30.26,NNE,22,0.0,0.0,60,0.00,,,0.00,WUHU21623XXSP,2013-02-11 10:50:00,
2013-02-11 05:55:00,19.2,7.1,30.26,NNE,22,0.0,0.0,59,0.00,,,0.00,WUHU21623XXSP,2013-02-11 10:55:00,
2013-02-11 06:00:00,19.6,7.1,30.26,NNE,22,0.0,0.0,58,0.00,,,0.00,WUHU21623XXSP,2013-02-11 11:00:00,
2013-02-11 06:05:00,19.6,7.1,30.25,NNE,22,0.0,0.0,58,0.00,,,0.00,WUHU21623XXSP,2013-02-11 11:05:00,
2013-02-11 06:10:00,19.8,8.1,30.25,NNE,22,0.0,0.0,60,0.00,,,0.00,WUHU21623XXSP,2013-02-11 11:10:00,
2013-02-11 06:15:00,19.8,8.1,30.24,NNE,22,0.0,0.0,60,0.00,,,0.00,WUHU21623XXSP,2013-02-11 11:15:00,
2013-02-11 06:20:00,19.9,7.4,30.24,NNE,22,0.0,0.0,58,0.00,,,0.00,WUHU21623XXSP,2013-02-11 11:20:00,
2013-02-11 06:25:00,19.6,7.5,30.23,NNE,22,0.0,0.0,59,0.00,,,0.00,WUHU21623XXSP,2013-02-11 11:25:00,
2013-02-11 06:30:00,19.6,8.2,30.23,NNE,22,0.0,0.0,61,0.00,,,0.00,WUHU21623XXSP,2013-02-11 11:30:00,
2013-02-11 06:35:00,19.6,7.9,30.23,NNE,22,0.0,0.0,60,0.00,,,0.00,WUHU21623XXSP,2013-02-11 11:35:00,
2013-02-11 06:40:00,19.6,7.5,30.22,NNE,22,0.0,3.1,59,0.00,,,0.00,WUHU21623XXSP,2013-02-11 11:40:00,
2013-02-11 06:45:00,20.3,7.0,30.22,NNE,22,0.0,3.1,56,0.00,,,0.00,WUHU21623XXSP,2013-02-11 11:45:00,
2013-02-11 06:50:00,20.5,7.1,30.21,NNE,22,1.1,1.1,56,0.00,,,0.00,WUHU21623XXSP,2013-02-11 11:50:00,
2013-02-11 06:55:00,20.7,6.9,30.21,NNE,22,1.6,2.7,55,0.00,,,0.00,WUHU21623XXSP,2013-02-11 11:55:00,
2013-02-11 07:00:00,20.5,6.7,30.21,NNE,22,0.0,2.7,55,0.00,,,0.00,WUHU21623XXSP,2013-02-11 12:00:00,
2013-02-11 07:05:00,19.0,6.6,30.21,NNE,22,0.0,1.6,58,0.00,,,0.00,WUHU21623XXSP,2013-02-11 12:05:00,
2013-02-11 07:10:00,18.3,7.1,30.21,NNE,22,0.0,2.2,61,0.00,,,0.00,WUHU21623XXSP,2013-02-11 12:10:00,
2013-02-11 07:15:00,19.0,8.1,30.22,NNE,22,0.0,2.2,62,0.00,,,0.00,WUHU21623XXSP,2013-02-11 12:15:00,
2013-02-11 07:20:00,18.3,7.4,30.22,NNE,22,0.0,0.0,62,0.00,,,0.00,WUHU21623XXSP,2013-02-11 12:20:00,
2013-02-11 07:25:00,18.5,8.3,30.22,NNE,22,0.0,1.6,64,0.00,,,0.00,WUHU21623XXSP,2013-02-11 12:25:00,
2013-02-11 07:30:00,18.3,8.8,30.22,NNE,22,0.0,1.6,66,0.00,,,0.00,WUHU21623XXSP,2013-02-11 12:30:00,
2013-02-11 07:35:00,18.3,7.8,30.22,NNE,22,0.0,0.0,63,0.00,,,0.00,WUHU21623XXSP,2013-02-11 12:35:00,
2013-02-11 07:40:00,19.0,8.1,30.22,NNE,22,0.0,0.0,62,0.00,,,0.00,WUHU21623XXSP,2013-02-11 12:40:00,
2013-02-11 07:45:00,19.9,8.9,30.21,NNE,22,0.0,0.0,62,0.00,,,0.00,WUHU21623XXSP,2013-02-11 12:45:00,
2013-02-11 07:50:00,20.5,9.1,30.21,NNE,22,0.0,0.0,61,0.00,,,0.00,WUHU21623XXSP,2013-02-11 12:50:00,
2013-02-11 07:55:00,20.8,9.1,30.20,ENE,67,0.0,0.0,60,0.00,,,0.00,WUHU21623XXSP,2013-02-11 12:55:00,
2013-02-11 08:00:00,21.0,9.3,30.19,ENE,67,0.0,0.0,60,0.00,,,0.00,WUHU21623XXSP,2013-02-11 13:00:00,
2013-02-11 08:05:00,20.8,9.5,30.19,ENE,67,0.0,0.0,61,0.00,,,0.00,WUHU21623XXSP,2013-02-11 13:05:00,
2013-02-11 08:10:00,20.8,9.8,30.19,ENE,67,0.0,0.0,62,0.00,,,0.00,WUHU21623XXSP,2013-02-11 13:10:00,
2013-02-11 08:15:00,19.6,8.6,30.19,ENE,67,0.0,0.0,62,0.00,,,0.00,WUHU21623XXSP,2013-02-11 13:15:00,
2013-02-11 08:20:00,19.2,8.2,30.19,ENE,67,0.0,0.0,62,0.00,,,0.00,WUHU21623XXSP,2013-02-11 13:20:00,
2013-02-11 08:25:00,19.6,9.2,30.18,NE,45,0.0,2.2,64,0.00,,,0.00,WUHU21623XXSP,2013-02-11 13:25:00,
2013-02-11 08:30:00,19.6,9.6,30.19,NE,45,0.0,2.2,65,0.00,,,0.00,WUHU21623XXSP,2013-02-11 13:30:00,
2013-02-11 08:35:00,19.6,11.0,30.18,NE,45,0.0,1.8,69,0.00,,,0.00,WUHU21623XXSP,2013-02-11 13:35:00,
2013-02-11 08:40:00,19.0,11.1,30.18,NE,45,0.0,0.0,71,0.00,,,0.00,WUHU21623XXSP,2013-02-11 13:40:00,
2013-02-11 08:45:00,18.5,10.9,30.18,NE,45,0.0,0.0,72,0.00,,,0.00,WUHU21623XXSP,2013-02-11 13:45:00,
2013-02-11 08:50:00,18.3,11.0,30.18,NE,45,0.0,0.0,73,0.00,,,0.00,WUHU21623XXSP,2013-02-11 13:50:00,
2013-02-11 08:55:00,18.3,11.3,30.17,NE,45,0.0,0.0,74,0.00,,,0.00,WUHU21623XXSP,2013-02-11 13:55:00,
2013-02-11 09:00:00,18.1,11.4,30.17,NE,45,0.0,0.0,75,0.00,,,0.00,WUHU21623XXSP,2013-02-11 14:00:00,
2013-02-11 09:05:00,18.0,11.3,30.16,NE,45,0.0,0.0,75,0.00,,,0.00,WUHU21623XXSP,2013-02-11 14:05:00,
2013-02-11 09:10:00,18.0,11.6,30.16,NE,45,0.0,0.0,76,0.00,,,0.00,WUHU21623XXSP,2013-02-11 14:10:00,
2013-02-11 09:15:00,18.3,11.9,30.16,NE,45,0.0,0.0,76,0.00,,,0.00,WUHU21623XXSP,2013-02-11 14:15:00,
2013-02-11 09:20:00,18.9,12.7,30.15,NE,45,0.0,0.0,77,0.00,,,0.00,WUHU21623XXSP,2013-02-11 14:20:00,
2013-02-11 09:25:00,19.2,13.1,30.15,NE,45,0.0,0.0,77,0.00,,,0.00,WUHU21623XXSP,2013-02-11 14:25:00,
2013-02-11 09:30:00,19.2,13.1,30.15,NE,45,0.0,0.0,77,0.00,,,0.00,WUHU21623XXSP,2013-02-11 14:30:00,
2013-02-11 09:35:00,18.9,12.7,30.15,NE,45,0.0,0.0,77,0.00,,,0.00,WUHU21623XXSP,2013-02-11 14:35:00,
2013-02-11 09:40:00,18.5,12.4,30.14,NE,45,0.0,0.0,77,0.00,,,0.00,WUHU21623XXSP,2013-02-11 14:40:00,
2013-02-11 09:45:00,18.5,12.7,30.14,NE,45,0.0,0.0,78,0.00,,,0.00,WUHU21623XXSP,2013-02-11 14:45:00,
2013-02-11 09:50:00,18.5,12.7,30.13,NE,45,0.0,0.0,78,0.00,,,0.00,WUHU21623XXSP,2013-02-11 14:50:00,
2013-02-11 09:55:00,18.3,12.5,30.13,NE,45,0.0,0.0,78,0.00,,,0.00,WUHU21623XXSP,2013-02-11 14:55:00,
2013-02-11 10:00:00,18.5,13.0,30.13,NE,45,0.0,0.0,79,0.00,,,0.00,WUHU21623XXSP,2013-02-11 15:00:00,
2013-02-11 10:05:00,18.7,13.2,30.12,NE,45,0.0,0.0,79,0.00,,,0.00,WUHU21623XXSP,2013-02-11 15:05:00,
2013-02-11 10:10:00,18.7,13.2,30.12,NE,45,0.0,0.0,79,0.00,,,0.00,WUHU21623XXSP,2013-02-11 15:10:00,
2013-02-11 10:15:00,18.7,13.2,30.11,NE,45,0.0,0.0,79,0.00,,,0.00,WUHU21623XXSP,2013-02-11 15:15:00,
2013-02-11 10:20:00,18.5,13.3,30.11,NE,45,0.0,0.0,80,0.00,,,0.00,WUHU21623XXSP,2013-02-11 15:20:00,
2013-02-11 10:25:00,18.3,13.1,30.11,NE,45,0.0,0.0,80,0.00,,,0.00,WUHU21623XXSP,2013-02-11 15:25:00,
2013-02-11 10:30:00,18.3,13.1,30.11,NE,45,0.0,0.0,80,0.00,,,0.00,WUHU21623XXSP,2013-02-11 15:30:00,
2013-02-11 10:35:00,18.3,13.1,30.11,NE,45,0.0,0.0,80,0.00,,,0.00,WUHU21623XXSP,2013-02-11 15:35:00,
2013-02-11 10:40:00,18.5,13.6,30.10,NE,45,0.0,0.0,81,0.00,,,0.00,WUHU21623XXSP,2013-02-11 15:40:00,
2013-02-11 10:45:00,18.5,13.6,30.10,NE,45,0.0,0.0,81,0.00,,,0.00,WUHU21623XXSP,2013-02-11 15:45:00,
2013-02-11 10:50:00,18.7,13.7,30.10,NE,45,0.0,0.0,81,0.00,,,0.00,WUHU21623XXSP,2013-02-11 15:50:00,
2013-02-11 10:55:00,18.5,13.6,30.10,NE,45,0.0,0.0,81,0.00,,,0.00,WUHU21623XXSP,2013-02-11 15:55:00,
2013-02-11 11:00:00,19.2,14.5,30.08,NE,45,0.0,0.0,82,0.00,,,0.00,WUHU21623XXSP,2013-02-11 16:00:00,
2013-02-11 11:05:00,19.2,14.5,30.07,NE,45,0.0,0.0,82,0.00,,,0.00,WUHU21623XXSP,2013-02-11 16:05:00,
2013-02-11 11:10:00,18.7,13.7,30.07,NE,45,0.0,0.0,81,0.00,,,0.00,WUHU21623XXSP,2013-02-11 16:10:00,
2013-02-11 11:15:00,18.7,13.7,30.07,NE,45,0.0,0.0,81,0.00,,,0.00,WUHU21623XXSP,2013-02-11 16:15:00,
2013-02-11 11:20:00,18.7,13.7,30.06,NE,45,0.0,0.0,81,0.00,,,0.00,WUHU21623XXSP,2013-02-11 16:20:00,
2013-02-11 11:25:00,18.7,14.0,30.06,NE,45,0.0,0.0,82,0.00,,,0.00,WUHU21623XXSP,2013-02-11 16:25:00,
2013-02-11 11:30:00,18.9,14.2,30.05,NE,45,0.0,0.0,82,0.00,,,0.00,WUHU21623XXSP,2013-02-11 16:30:00,
2013-02-11 11:35:00,19.0,14.4,30.05,NE,45,0.0,0.0,82,0.00,,,0.00,WUHU21623XXSP,2013-02-11 16:35:00,
2013-02-11 11:40:00,19.2,14.5,30.04,NE,45,0.0,0.0,82,0.00,,,0.00,WUHU21623XXSP,2013-02-11 16:40:00,
2013-02-11 11:45:00,19.2,14.5,30.04,NE,45,0.0,0.0,82,0.00,,,0.00,WUHU21623XXSP,2013-02-11 16:45:00,
2013-02-11 11:50:00,19.2,14.5,30.03,NE,45,0.0,0.0,82,0.00,,,0.00,WUHU21623XXSP,2013-02-11 16:50:00,
2013-02-11 11:55:00,19.2,14.8,30.02,NE,45,0.0,0.0,83,0.00,,,0.00,WUHU21623XXSP,2013-02-11 16:55:00,
2013-02-11 12:00:00,19.4,15.0,30.02,NE,45,0.0,0.0,83,0.00,,,0.00,WUHU21623XXSP,2013-02-11 17:00:00,
2013-02-11 12:05:00,19.6,15.2,30.02,NE,45,0.0,0.0,83,0.00,,,0.00,WUHU21623XXSP,2013-02-11 17:05:00,
2013-02-11 12:10:00,19.6,15.2,30.01,NE,45,0.0,0.0,83,0.00,,,0.00,WUHU21623XXSP,2013-02-11 17:10:00,
2013-02-11 12:15:00,19.6,15.2,30.01,NE,45,0.0,0.0,83,0.00,,,0.00,WUHU21623XXSP,2013-02-11 17:15:00,
2013-02-11 12:20:00,19.8,15.3,30.00,NE,45,0.0,0.0,83,0.00,,,0.00,WUHU21623XXSP,2013-02-11 17:20:00,
2013-02-11 12:25:00,19.9,15.5,30.00,NE,45,0.0,0.0,83,0.00,,,0.00,WUHU21623XXSP,2013-02-11 17:25:00,
2013-02-11 12:30:00,20.1,15.7,29.99,NE,45,0.0,0.0,83,0.00,,,0.00,WUHU21623XXSP,2013-02-11 17:30:00,
2013-02-11 12:35:00,20.1,15.7,29.99,NE,45,0.0,0.0,83,0.00,,,0.00,WUHU21623XXSP,2013-02-11 17:35:00,
2013-02-11 12:40:00,20.1,15.7,29.98,NE,45,0.0,0.0,83,0.00,,,0.00,WUHU21623XXSP,2013-02-11 17:40:00,
2013-02-11 12:45:00,20.3,16.2,29.97,NE,45,0.0,0.0,84,0.00,,,0.00,WUHU21623XXSP,2013-02-11 17:45:00,
2013-02-11 12:50:00,20.3,16.2,29.97,NE,45,0.0,0.0,84,0.00,,,0.00,WUHU21623XXSP,2013-02-11 17:50:00,
2013-02-11 12:55:00,20.5,16.3,29.97,NE,45,0.0,0.0,84,0.00,,,0.00,WUHU21623XXSP,2013-02-11 17:55:00,
2013-02-11 13:00:00,20.8,16.7,29.97,NE,45,0.0,0.0,84,0.00,,,0.00,WUHU21623XXSP,2013-02-11 18:00:00,
2013-02-11 13:05:00,21.0,16.9,29.96,NE,45,0.0,0.0,84,0.00,,,0.00,WUHU21623XXSP,2013-02-11 18:05:00,
2013-02-11 13:10:00,21.0,16.9,29.95,NE,45,0.0,0.0,84,0.00,,,0.00,WUHU21623XXSP,2013-02-11 18:10:00,
2013-02-11 13:15:00,21.6,17.7,29.95,NE,45,0.0,0.0,85,0.00,,,0.00,WUHU21623XXSP,2013-02-11 18:15:00,
2013-02-11 13:20:00,21.6,17.7,29.94,NE,45,0.0,0.0,85,0.00,,,0.00,WUHU21623XXSP,2013-02-11 18:20:00,
2013-02-11 13:25:00,21.4,17.5,29.94,NE,45,0.0,0.0,85,0.00,,,0.00,WUHU21623XXSP,2013-02-11 18:25:00,
2013-02-11 13:30:00,21.4,17.5,29.93,NE,45,0.0,0.0,85,0.00,,,0.00,WUHU21623XXSP,2013-02-11 18:30:00,
2013-02-11 13:35:00,21.4,17.5,29.93,NE,45,0.0,0.0,85,0.00,,,0.00,WUHU21623XXSP,2013-02-11 18:35:00,
2013-02-11 13:40:00,21.7,17.9,29.93,NE,45,0.0,0.0,85,0.00,,,0.00,WUHU21623XXSP,2013-02-11 18:40:00,
2013-02-11 13:45:00,21.6,17.7,29.93,NE,45,0.0,0.0,85,0.00,,,0.00,WUHU21623XXSP,2013-02-11 18:45:00,
2013-02-11 13:50:00,21.4,17.5,29.93,NE,45,0.0,0.0,85,0.00,,,0.00,WUHU21623XXSP,2013-02-11 18:50:00,
2013-02-11 13:55:00,21.4,17.8,29.92,NE,45,0.0,0.0,86,0.00,,,0.00,WUHU21623XXSP,2013-02-11 18:55:00,
2013-02-11 14:00:00,21.4,17.8,29.92,NE,45,0.0,0.0,86,0.00,,,0.00,WUHU21623XXSP,2013-02-11 19:00:00,
2013-02-11 14:05:00,21.7,18.1,29.92,NE,45,0.0,0.0,86,0.00,,,0.00,WUHU21623XXSP,2013-02-11 19:05:00,
2013-02-11 14:10:00,21.9,18.3,29.91,NE,45,0.0,0.0,86,0.00,,,0.00,WUHU21623XXSP,2013-02-11 19:10:00,
2013-02-11 14:15:00,22.1,18.5,29.90,NE,45,0.0,0.0,86,0.00,,,0.00,WUHU21623XXSP,2013-02-11 19:15:00,
2013-02-11 14:20:00,22.5,18.9,29.90,NE,45,0.0,0.0,86,0.00,,,0.00,WUHU21623XXSP,2013-02-11 19:20:00,
2013-02-11 14:25:00,22.6,19.0,29.90,NE,45,0.0,0.0,86,0.00,,,0.00,WUHU21623XXSP,2013-02-11 19:25:00,
2013-02-11 14:30:00,22.3,18.7,29.90,NE,45,0.0,0.0,86,0.00,,,0.00,WUHU21623XXSP,2013-02-11 19:30:00,
2013-02-11 14:35:00,22.3,18.7,29.90,NE,45,0.0,0.0,86,0.00,,,0.00,WUHU21623XXSP,2013-02-11 19:35:00,
2013-02-11 14:40:00,22.3,18.7,29.90,NE,45,0.0,0.0,86,0.00,,,0.00,WUHU21623XXSP,2013-02-11 19:40:00,
2013-02-11 14:45:00,22.3,18.7,29.89,NE,45,0.0,0.0,86,0.00,,,0.00,WUHU21623XXSP,2013-02-11 19:45:00,
2013-02-11 14:50:00,22.8,19.5,29.89,NE,45,0.0,0.0,87,0.00,,,0.00,WUHU21623XXSP,2013-02-11 19:50:00,
2013-02-11 14:55:00,22.8,19.5,29.89,NE,45,0.0,0.0,87,0.00,,,0.00,WUHU21623XXSP,2013-02-11 19:55:00,
2013-02-11 15:00:00,23.0,19.7,29.89,NE,45,0.0,0.0,87,0.00,,,0.00,WUHU21623XXSP,2013-02-11 20:00:00,
2013-02-11 15:05:00,22.8,19.5,29.88,NE,45,0.0,0.0,87,0.00,,,0.00,WUHU21623XXSP,2013-02-11 20:05:00,
2013-02-11 15:10:00,23.0,19.7,29.87,NE,45,0.0,0.0,87,0.00,,,0.00,WUHU21623XXSP,2013-02-11 20:10:00,
2013-02-11 15:15:00,22.8,19.5,29.87,NE,45,0.0,0.0,87,0.00,,,0.00,WUHU21623XXSP,2013-02-11 20:15:00,
2013-02-11 15:20:00,23.0,19.7,29.87,NE,45,0.0,0.0,87,0.00,,,0.00,WUHU21623XXSP,2013-02-11 20:20:00,
2013-02-11 15:25:00,23.2,19.9,29.87,NE,45,0.0,0.0,87,0.00,,,0.00,WUHU21623XXSP,2013-02-11 20:25:00,
2013-02-11 15:30:00,23.0,19.7,29.87,NE,45,0.0,0.0,87,0.00,,,0.00,WUHU21623XXSP,2013-02-11 20:30:00,
2013-02-11 15:35:00,23.0,19.7,29.86,NE,45,0.0,0.0,87,0.00,,,0.00,WUHU21623XXSP,2013-02-11 20:35:00,
2013-02-11 15:40:00,22.8,19.5,29.85,NE,45,0.0,0.0,87,0.00,,,0.00,WUHU21623XXSP,2013-02-11 20:40:00,
2013-02-11 15:45:00,23.2,19.9,29.85,NE,45,0.0,0.0,87,0.00,,,0.00,WUHU21623XXSP,2013-02-11 20:45:00,
2013-02-11 15:50:00,23.0,19.7,29.84,NE,45,0.0,0.0,87,0.00,,,0.00,WUHU21623XXSP,2013-02-11 20:50:00,
2013-02-11 15:55:00,23.2,19.9,29.83,NE,45,0.0,0.0,87,0.00,,,0.00,WUHU21623XXSP,2013-02-11 20:55:00,
2013-02-11 16:01:00,23.7,20.4,29.83,NE,45,0.0,0.0,87,0.00,,,0.00,WUHU21623XXSP,2013-02-11 21:01:00,
2013-02-11 16:06:00,23.5,20.2,29.83,NE,45,0.0,0.0,87,0.00,,,0.00,WUHU21623XXSP,2013-02-11 21:06:00,
2013-02-11 16:11:00,23.4,20.0,29.82,NE,45,0.0,0.0,87,0.00,,,0.00,WUHU21623XXSP,2013-02-11 21:11:00,
2013-02-11 16:16:00,23.5,20.0,29.83,NE,45,0.0,0.0,87,0.00,,,0.00,WUHU21623XXSP,2013-02-11 21:16:00,
2013-02-11 16:21:00,23.7,20.4,29.82,NE,45,0.0,0.0,87,0.00,,,0.00,WUHU21623XXSP,2013-02-11 21:21:00,
2013-02-11 16:26:00,23.5,20.2,29.81,NE,45,0.0,0.0,87,0.00,,,0.00,WUHU21623XXSP,2013-02-11 21:26:00,
2013-02-11 16:31:00,23.5,20.2,29.81,NE,45,0.0,0.0,87,0.00,,,0.00,WUHU21623XXSP,2013-02-11 21:31:00,
2013-02-11 16:36:00,23.4,20.0,29.80,NE,45,0.0,0.0,87,0.00,,,0.00,WUHU21623XXSP,2013-02-11 21:36:00,
2013-02-11 16:41:00,23.5,20.2,29.81,NE,45,0.0,0.0,87,0.00,,,0.00,WUHU21623XXSP,2013-02-11 21:41:00,
2013-02-11 16:46:00,23.4,20.0,29.81,NE,45,0.0,0.0,87,0.00,,,0.00,WUHU21623XXSP,2013-02-11 21:46:00,
2013-02-11 16:51:00,23.4,20.3,29.81,NE,45,0.0,0.0,88,0.00,,,0.00,WUHU21623XXSP,2013-02-11 21:51:00,
2013-02-11 16:56:00,23.7,20.7,29.81,NE,45,0.0,0.0,88,0.00,,,0.00,WUHU21623XXSP,2013-02-11 21:56:00,
2013-02-11 17:01:00,23.5,20.5,29.80,NE,45,0.0,0.0,88,0.00,,,0.00,WUHU21623XXSP,2013-02-11 22:01:00,
2013-02-11 17:06:00,23.5,20.5,29.80,NE,45,0.0,0.0,88,0.00,,,0.00,WUHU21623XXSP,2013-02-11 22:06:00,
2013-02-11 17:11:00,23.7,20.7,29.80,NE,45,0.0,0.0,88,0.00,,,0.00,WUHU21623XXSP,2013-02-11 22:11:00,
2013-02-11 17:16:00,23.7,20.7,29.80,NE,45,0.0,0.0,88,0.00,,,0.00,WUHU21623XXSP,2013-02-11 22:16:00,
2013-02-11 17:21:00,23.5,20.5,29.79,NE,45,0.0,0.0,88,0.00,,,0.00,WUHU21623XXSP,2013-02-11 22:21:00,
2013-02-11 17:26:00,23.7,20.7,29.80,NE,45,0.0,0.0,88,0.00,,,0.00,WUHU21623XXSP,2013-02-11 22:26:00,
2013-02-11 17:31:00,23.5,20.5,29.80,NE,45,0.0,0.0,88,0.00,,,0.00,WUHU21623XXSP,2013-02-11 22:31:00,
2013-02-11 17:36:00,23.7,20.7,29.80,NE,45,0.0,0.0,88,0.00,,,0.00,WUHU21623XXSP,2013-02-11 22:36:00,
2013-02-11 17:41:00,23.7,20.7,29.80,NE,45,0.0,0.0,88,0.00,,,0.00,WUHU21623XXSP,2013-02-11 22:41:00,
2013-02-11 17:46:00,23.9,20.8,29.79,NE,45,0.0,0.0,88,0.00,,,0.00,WUHU21623XXSP,2013-02-11 22:46:00,
2013-02-11 17:51:00,23.9,20.8,29.79,NE,45,0.0,0.0,88,0.00,,,0.00,WUHU21623XXSP,2013-02-11 22:51:00,
2013-02-11 17:56:00,23.9,20.8,29.79,NE,45,0.0,0.0,88,0.00,,,0.00,WUHU21623XXSP,2013-02-11 22:56:00,
2013-02-11 18:01:00,23.9,20.8,29.79,NE,45,0.0,0.0,88,0.00,,,0.00,WUHU21623XXSP,2013-02-11 23:01:00,
2013-02-11 18:06:00,23.9,20.8,29.79,NE,45,0.0,0.0,88,0.00,,,0.00,WUHU21623XXSP,2013-02-11 23:06:00,
2013-02-11 18:11:00,23.9,20.8,29.78,NE,45,0.0,0.0,88,0.00,,,0.00,WUHU21623XXSP,2013-02-11 23:11:00,
2013-02-11 18:16:00,23.9,20.8,29.79,NE,45,0.0,0.0,88,0.00,,,0.00,WUHU21623XXSP,2013-02-11 23:16:00,
2013-02-11 18:21:00,24.1,21.0,29.78,NE,45,0.0,0.0,88,0.00,,,0.00,WUHU21623XXSP,2013-02-11 23:21:00,
2013-02-11 18:26:00,24.1,21.0,29.77,NE,45,0.0,0.0,88,0.00,,,0.00,WUHU21623XXSP,2013-02-11 23:26:00,
2013-02-11 18:31:00,24.1,21.0,29.77,NE,45,0.0,0.0,88,0.00,,,0.00,WUHU21623XXSP,2013-02-11 23:31:00,
2013-02-11 18:36:00,23.9,20.8,29.77,NE,45,0.0,0.0,88,0.00,,,0.00,WUHU21623XXSP,2013-02-11 23:36:00,
2013-02-11 18:41:00,23.9,20.8,29.77,NE,45,0.0,0.0,88,0.00,,,0.00,WUHU21623XXSP,2013-02-11 23:41:00,
2013-02-11 18:46:00,23.9,20.8,29.77,NE,45,0.0,0.0,88,0.00,,,0.00,WUHU21623XXSP,2013-02-11 23:46:00,
2013-02-11 18:51:00,23.9,20.8,29.76,NE,45,0.0,0.0,88,0.00,,,0.00,WUHU21623XXSP,2013-02-11 23:51:00,
2013-02-11 18:56:00,23.9,20.8,29.77,NE,45,0.0,0.0,88,0.00,,,0.00,WUHU21623XXSP,2013-02-11 23:56:00,
2013-02-11 19:01:00,23.9,20.8,29.76,NE,45,0.0,0.0,88,0.00,,,0.00,WUHU21623XXSP,2013-02-12 00:01:00,
2013-02-11 19:06:00,23.9,20.8,29.76,NE,45,0.0,0.0,88,0.00,,,0.00,WUHU21623XXSP,2013-02-12 00:06:00,
2013-02-11 19:11:00,24.1,21.0,29.76,NE,45,0.0,0.0,88,0.00,,,0.00,WUHU21623XXSP,2013-02-12 00:11:00,
2013-02-11 19:16:00,24.1,21.0,29.75,NE,45,0.0,0.0,88,0.00,,,0.00,WUHU21623XXSP,2013-02-12 00:16:00,
2013-02-11 19:21:00,24.1,21.0,29.76,NE,45,0.0,0.0,88,0.00,,,0.00,WUHU21623XXSP,2013-02-12 00:21:00,
2013-02-11 19:26:00,24.1,21.0,29.75,NE,45,0.0,0.0,88,0.00,,,0.00,WUHU21623XXSP,2013-02-12 00:26:00,
2013-02-11 19:31:00,24.1,21.0,29.75,NE,45,0.0,0.0,88,0.00,,,0.00,WUHU21623XXSP,2013-02-12 00:31:00,
2013-02-11 19:36:00,24.4,21.4,29.75,NE,45,0.0,0.0,88,0.00,,,0.00,WUHU21623XXSP,2013-02-12 00:36:00,
2013-02-11 19:41:00,24.3,21.2,29.74,NE,45,0.0,0.0,88,0.00,,,0.00,WUHU21623XXSP,2013-02-12 00:41:00,
2013-02-11 19:46:00,24.4,21.4,29.75,NE,45,0.0,0.0,88,0.00,,,0.00,WUHU21623XXSP,2013-02-12 00:46:00,
2013-02-11 19:51:00,24.4,21.4,29.75,NE,45,0.0,0.0,88,0.00,,,0.00,WUHU21623XXSP,2013-02-12 00:51:00,
2013-02-11 19:56:00,24.4,21.4,29.74,NE,45,0.0,0.0,88,0.00,,,0.00,WUHU21623XXSP,2013-02-12 00:56:00,
2013-02-11 20:01:00,24.4,21.4,29.74,NE,45,0.0,0.0,88,0.00,,,0.00,WUHU21623XXSP,2013-02-12 01:01:00,
2013-02-11 20:06:00,24.6,21.6,29.74,NE,45,0.0,0.0,88,0.00,,,0.00,WUHU21623XXSP,2013-02-12 01:06:00,
2013-02-11 20:11:00,24.6,21.6,29.74,NE,45,0.0,0.0,88,0.00,,,0.00,WUHU21623XXSP,2013-02-12 01:11:00,
2013-02-11 20:16:00,24.6,21.6,29.74,NE,45,0.0,0.0,88,0.00,,,0.00,WUHU21623XXSP,2013-02-12 01:16:00,
2013-02-11 20:21:00,24.6,21.6,29.75,NE,45,0.0,0.0,88,0.00,,,0.00,WUHU21623XXSP,2013-02-12 01:21:00,
2013-02-11 20:26:00,24.6,21.6,29.75,NE,45,0.0,0.0,88,0.00,,,0.00,WUHU21623XXSP,2013-02-12 01:26:00,
2013-02-11 20:31:00,24.6,21.6,29.75,NE,45,0.0,0.0,88,0.00,,,0.00,WUHU21623XXSP,2013-02-12 01:31:00,
2013-02-11 20:36:00,24.6,21.6,29.75,NE,45,0.0,0.0,88,0.00,,,0.00,WUHU21623XXSP,2013-02-12 01:36:00,
2013-02-11 20:41:00,25.0,21.9,29.74,NE,45,0.0,0.0,88,0.00,,,0.00,WUHU21623XXSP,2013-02-12 01:41:00,
2013-02-11 20:46:00,25.0,21.9,29.74,NE,45,0.0,0.0,88,0.00,,,0.00,WUHU21623XXSP,2013-02-12 01:46:00,
2013-02-11 20:51:00,25.0,21.9,29.74,NE,45,0.0,0.0,88,0.00,,,0.00,WUHU21623XXSP,2013-02-12 01:51:00,
2013-02-11 20:56:00,25.0,21.9,29.74,NE,45,0.0,0.0,88,0.00,,,0.00,WUHU21623XXSP,2013-02-12 01:56:00,
2013-02-11 21:01:00,25.0,21.9,29.74,NE,45,0.0,0.0,88,0.00,,,0.00,WUHU21623XXSP,2013-02-12 02:01:00,
2013-02-11 21:06:00,25.2,22.1,29.73,NE,45,0.0,0.0,88,0.00,,,0.00,WUHU21623XXSP,2013-02-12 02:06:00,
2013-02-11 21:11:00,25.3,22.5,29.73,NE,45,0.0,0.0,89,0.00,,,0.00,WUHU21623XXSP,2013-02-12 02:11:00,
2013-02-11 21:16:00,25.3,22.5,29.74,NE,45,0.0,0.0,89,0.00,,,0.00,WUHU21623XXSP,2013-02-12 02:16:00,
2013-02-11 21:21:00,25.3,22.5,29.73,NE,45,0.0,0.0,89,0.00,,,0.00,WUHU21623XXSP,2013-02-12 02:21:00,
2013-02-11 21:26:00,25.3,22.5,29.73,NE,45,0.0,0.0,89,0.00,,,0.00,WUHU21623XXSP,2013-02-12 02:26:00,
2013-02-11 21:31:00,25.2,22.1,29.73,NE,45,0.0,0.0,88,0.00,,,0.00,WUHU21623XXSP,2013-02-12 02:31:00,
2013-02-11 21:36:00,25.3,22.5,29.72,NE,45,0.0,0.0,89,0.00,,,0.00,WUHU21623XXSP,2013-02-12 02:36:00,
2013-02-11 21:41:00,25.5,22.7,29.73,NE,45,0.0,0.0,89,0.00,,,0.00,WUHU21623XXSP,2013-02-12 02:41:00,
2013-02-11 21:46:00,25.5,22.7,29.71,NE,45,0.0,0.0,89,0.00,,,0.00,WUHU21623XXSP,2013-02-12 02:46:00,
2013-02-11 21:51:00,26.1,23.3,29.72,NE,45,0.0,0.0,89,0.00,,,0.00,WUHU21623XXSP,2013-02-12 02:51:00,
2013-02-11 21:56:00,25.7,22.9,29.72,NE,45,0.0,0.0,89,0.00,,,0.00,WUHU21623XXSP,2013-02-12 02:56:00,
2013-02-11 22:01:00,25.5,22.7,29.72,NE,45,0.0,0.0,89,0.00,,,0.00,WUHU21623XXSP,2013-02-12 03:01:00,
2013-02-11 22:06:00,25.5,22.7,29.72,NE,45,0.0,0.0,89,0.00,,,0.00,WUHU21623XXSP,2013-02-12 03:06:00,
2013-02-11 22:11:00,25.3,22.5,29.72,NE,45,0.0,0.0,89,0.00,,,0.00,WUHU21623XXSP,2013-02-12 03:11:00,
2013-02-11 22:16:00,25.5,22.7,29.71,NE,45,0.0,0.0,89,0.00,,,0.00,WUHU21623XXSP,2013-02-12 03:16:00,
2013-02-11 22:21:00,25.5,22.7,29.72,NE,45,0.0,0.0,89,0.00,,,0.00,WUHU21623XXSP,2013-02-12 03:21:00,
2013-02-11 22:26:00,25.7,22.9,29.72,NE,45,0.0,0.0,89,0.00,,,0.00,WUHU21623XXSP,2013-02-12 03:26:00,
2013-02-11 22:31:00,26.1,23.3,29.73,NE,45,0.0,0.0,89,0.00,,,0.00,WUHU21623XXSP,2013-02-12 03:31:00,
2013-02-11 22:36:00,26.2,23.4,29.73,NE,45,0.0,0.0,89,0.00,,,0.00,WUHU21623XXSP,2013-02-12 03:36:00,
2013-02-11 22:41:00,26.8,24.0,29.73,NE,45,0.0,0.0,89,0.00,,,0.00,WUHU21623XXSP,2013-02-12 03:41:00,
2013-02-11 22:46:00,28.0,25.2,29.73,WSW,247,0.0,0.0,89,0.00,,,0.00,WUHU21623XXSP,2013-02-12 03:46:00,
2013-02-11 22:51:00,30.0,27.5,29.73,WSW,247,0.0,0.0,90,0.00,,,0.00,WUHU21623XXSP,2013-02-12 03:51:00,
2013-02-11 22:56:00,30.2,27.7,29.73,WSW,247,0.0,0.0,90,0.00,,,0.00,WUHU21623XXSP,2013-02-12 03:56:00,
2013-02-11 23:01:00,29.8,27.3,29.72,SE,135,0.0,0.0,90,0.00,,,0.00,WUHU21623XXSP,2013-02-12 04:01:00,
2013-02-11 23:06:00,30.4,27.9,29.72,ESE,112,0.0,0.0,90,0.00,,,0.00,WUHU21623XXSP,2013-02-12 04:06:00,
2013-02-11 23:11:00,30.9,28.4,29.72,SE,135,0.0,0.0,90,0.00,,,0.00,WUHU21623XXSP,2013-02-12 04:11:00,
2013-02-11 23:16:00,31.6,29.1,29.72,SE,135,0.0,0.0,90,0.00,,,0.00,WUHU21623XXSP,2013-02-12 04:16:00,
2013-02-11 23:21:00,32.2,29.6,29.72,SE,135,0.0,0.0,90,0.00,,,0.00,WUHU21623XXSP,2013-02-12 04:21:00,
2013-02-11 23:26:00,32.4,29.8,29.72,South,180,0.0,0.0,90,0.00,,,0.00,WUHU21623XXSP,2013-02-12 04:26:00,
2013-02-11 23:31:00,32.7,30.1,29.73,South,180,0.0,0.0,90,0.00,,,0.00,WUHU21623XXSP,2013-02-12 04:31:00,
2013-02-11 23:36:00,33.1,30.5,29.72,SSW,202,0.0,4.7,90,0.00,,,0.00,WUHU21623XXSP,2013-02-12 04:36:00,
2013-02-11 23:41:00,32.9,30.3,29.72,SSW,202,0.0,4.7,90,0.00,,,0.00,WUHU21623XXSP,2013-02-12 04:41:00,
2013-02-11 23:46:00,32.7,30.1,29.71,SSW,202,0.0,0.0,90,0.00,,,0.00,WUHU21623XXSP,2013-02-12 04:46:00,
2013-02-11 23:51:00,32.5,30.0,29.71,SSW,202,0.0,0.0,90,0.00,,,0.00,WUHU21623XXSP,2013-02-12 04:51:00,
2013-02-11 23:56:00,32.5,30.0,29.70,SSW,202,0.0,0.0,90,0.00,,,0.00,WUHU21623XXSP,2013-02-12 04:56:00,